Zurück zum Katalog

STARLINK-30356

AktivKommunikationVLEO
NORAD 57748·PAYLOAD·🇺🇸 United States

Gestartet Sep 1, 2023 von Cape Canaveral Space Force Station

Loading…

Nächste Überflüge (nächste 24 Stunden)

TLE

AktuellSource: CelesTrak SupGP

Epoche: Sep 14, 2026, 22:09 UTC

1 57748C 23131S   26257.92340278 -.00019085  00000+0 -69124-3 0  2574
2 57748  43.0002 183.4333 0001343 264.0014   7.6490 15.27588153    17

Verfolge STARLINK-30356 in Echtzeit mit AllMySat

Download on the App Store